iso_date,Year,Hour,Min,DOY,POS_DOY,Lat,Lon,BP,Ts,Ta,has_bp,has_ts,has_ta,BuoyID,Buoy_Type,Buoy_Owner,Logistics,Hemisphere
2021-09-07T19:00:02Z,2021,19,0,250.7917,250.7917,74.7642,-79.0882,1011.8,2.5,-999.0,yes,yes,no,300234060842950,SVP-B,ECCC,RCAF,North
2021-09-07T19:59:57Z,2021,20,0,250.8333,250.8333,74.808,-78.8754,1013.4,1.1,-999.0,yes,yes,no,300234060842950,SVP-B,ECCC,RCAF,North
2021-09-07T21:00:00Z,2021,21,0,250.875,250.875,74.7748,-78.9,1013.6,1.1,-999.0,yes,yes,no,300234060842950,SVP-B,ECCC,RCAF,North
2021-09-07T22:00:02Z,2021,22,0,250.9167,250.9167,74.7424,-78.9388,1013.9,1.1,-999.0,yes,yes,no,300234060842950,SVP-B,ECCC,RCAF,North
2021-09-07T22:59:57Z,2021,23,0,250.9583,250.9583,74.7104,-79.014,1014.3,1.2,-999.0,yes,yes,no,300234060842950,SVP-B,ECCC,RCAF,North
2021-09-08T00:00:00Z,2021,0,0,251.0,251.0,74.6822,-79.0888,1014.4,1.1,-999.0,yes,yes,no,300234060842950,SVP-B,ECCC,RCAF,North
2021-09-08T01:00:02Z,2021,1,0,251.0417,251.0417,74.6562,-79.1618,1015.3,1.0,-999.0,yes,yes,no,300234060842950,SVP-B,ECCC,RCAF,North
2021-09-08T01:59:57Z,2021,2,0,251.0833,251.0833,74.6322,-79.2442,1016.1,1.2,-999.0,yes,yes,no,300234060842950,SVP-B,ECCC,RCAF,North
2021-09-08T03:00:00Z,2021,3,0,251.125,251.125,74.6096,-79.3334,1016.5,1.4,-999.0,yes,yes,no,300234060842950,SVP-B,ECCC,RCAF,North
2021-09-08T04:00:02Z,2021,4,0,251.1667,251.1667,74.5888,-79.4256,1016.8,1.7,-999.0,yes,yes,no,300234060842950,SVP-B,ECCC,RCAF,North
2021-09-08T04:59:57Z,2021,5,0,251.2083,251.2083,74.569,-79.5238,1017.2,2.0,-999.0,yes,yes,no,300234060842950,SVP-B,ECCC,RCAF,North
2021-09-08T06:00:00Z,2021,6,0,251.25,251.25,74.5486,-79.6096,1017.6,2.5,-999.0,yes,yes,no,300234060842950,SVP-B,ECCC,RCAF,North
2021-09-08T07:00:02Z,2021,7,0,251.2917,251.2917,74.5272,-79.6872,1018.0,2.6,-999.0,yes,yes,no,300234060842950,SVP-B,ECCC,RCAF,North
2021-09-08T07:59:57Z,2021,8,0,251.3333,251.3333,74.5066,-79.7702,1018.3,2.7,-999.0,yes,yes,no,300234060842950,SVP-B,ECCC,RCAF,North
2021-09-08T09:00:00Z,2021,9,0,251.375,251.375,74.49,-79.8408,1018.6,2.8,-999.0,yes,yes,no,300234060842950,SVP-B,ECCC,RCAF,North
2021-09-08T10:00:02Z,2021,10,0,251.4167,251.4167,74.4774,-79.894,1018.9,2.7,-999.0,yes,yes,no,300234060842950,SVP-B,ECCC,RCAF,North
2021-09-08T10:59:57Z,2021,11,0,251.4583,251.4583,74.4704,-79.9372,1019.0,2.8,-999.0,yes,yes,no,300234060842950,SVP-B,ECCC,RCAF,North
2021-09-08T12:00:00Z,2021,12,0,251.5,251.5,74.464,-79.9936,1019.1,2.6,-999.0,yes,yes,no,300234060842950,SVP-B,ECCC,RCAF,North
2021-09-08T13:00:02Z,2021,13,0,251.5417,251.5417,74.4556,-80.063,1019.1,2.6,-999.0,yes,yes,no,300234060842950,SVP-B,ECCC,RCAF,North
2021-09-08T13:59:57Z,2021,14,0,251.5833,251.5833,74.4438,-80.1372,1018.9,2.8,-999.0,yes,yes,no,300234060842950,SVP-B,ECCC,RCAF,North
2021-09-08T15:00:00Z,2021,15,0,251.625,251.625,74.429,-80.221,1018.6,2.8,-999.0,yes,yes,no,300234060842950,SVP-B,ECCC,RCAF,North
2021-09-08T16:00:02Z,2021,16,0,251.6667,251.6667,74.4152,-80.3256,1018.4,2.6,-999.0,yes,yes,no,300234060842950,SVP-B,ECCC,RCAF,North
2021-09-08T16:59:57Z,2021,17,0,251.7083,251.7083,74.4048,-80.435,1018.7,2.6,-999.0,yes,yes,no,300234060842950,SVP-B,ECCC,RCAF,North
2021-09-08T18:00:00Z,2021,18,0,251.75,251.75,74.3964,-80.5518,1019.1,2.7,-999.0,yes,yes,no,300234060842950,SVP-B,ECCC,RCAF,North
2021-09-08T19:00:02Z,2021,19,0,251.7917,251.7917,74.3902,-80.652,1019.5,2.6,-999.0,yes,yes,no,300234060842950,SVP-B,ECCC,RCAF,North
2021-09-08T19:59:57Z,2021,20,0,251.8333,251.8333,74.384,-80.763,1019.8,2.6,-999.0,yes,yes,no,300234060842950,SVP-B,ECCC,RCAF,North
2021-09-08T21:00:00Z,2021,21,0,251.875,251.875,74.3794,-80.847,1020.2,2.7,-999.0,yes,yes,no,300234060842950,SVP-B,ECCC,RCAF,North
2021-09-08T22:00:02Z,2021,22,0,251.9167,251.9167,74.3738,-80.9092,1020.6,2.6,-999.0,yes,yes,no,300234060842950,SVP-B,ECCC,RCAF,North
2021-09-08T22:59:57Z,2021,23,0,251.9583,251.9583,74.367,-80.9746,1020.8,2.5,-999.0,yes,yes,no,300234060842950,SVP-B,ECCC,RCAF,North
2021-09-09T00:00:00Z,2021,0,0,252.0,252.0,74.358,-81.0486,1021.1,2.6,-999.0,yes,yes,no,300234060842950,SVP-B,ECCC,RCAF,North
2021-09-09T01:00:02Z,2021,1,0,252.0417,252.0417,74.351,-81.1256,1021.5,2.7,-999.0,yes,yes,no,300234060842950,SVP-B,ECCC,RCAF,North
2021-09-09T01:59:57Z,2021,2,0,252.0833,252.0833,74.3434,-81.2004,1021.5,2.6,-999.0,yes,yes,no,300234060842950,SVP-B,ECCC,RCAF,North
2021-09-09T03:00:00Z,2021,3,0,252.125,252.125,74.3328,-81.2748,1021.4,2.6,-999.0,yes,yes,no,300234060842950,SVP-B,ECCC,RCAF,North
2021-09-09T04:00:02Z,2021,4,0,252.1667,252.1667,74.3202,-81.3556,1021.4,2.7,-999.0,yes,yes,no,300234060842950,SVP-B,ECCC,RCAF,North
2021-09-09T04:59:57Z,2021,5,0,252.2083,252.2083,74.3068,-81.4346,1021.4,2.6,-999.0,yes,yes,no,300234060842950,SVP-B,ECCC,RCAF,North
2021-09-09T06:00:00Z,2021,6,0,252.25,252.25,74.2936,-81.5078,1021.6,2.6,-999.0,yes,yes,no,300234060842950,SVP-B,ECCC,RCAF,North
2021-09-09T07:00:02Z,2021,7,0,252.2917,252.2917,74.2792,-81.5692,1021.6,2.6,-999.0,yes,yes,no,300234060842950,SVP-B,ECCC,RCAF,North
2021-09-09T07:59:57Z,2021,8,0,252.3333,252.3333,74.2662,-81.6192,1021.8,2.6,-999.0,yes,yes,no,300234060842950,SVP-B,ECCC,RCAF,North
2021-09-09T09:00:00Z,2021,9,0,252.375,252.375,74.2528,-81.6598,1022.0,2.7,-999.0,yes,yes,no,300234060842950,SVP-B,ECCC,RCAF,North
2021-09-09T10:00:02Z,2021,10,0,252.4167,252.4167,74.2384,-81.6776,1022.1,2.6,-999.0,yes,yes,no,300234060842950,SVP-B,ECCC,RCAF,North
2021-09-09T10:59:57Z,2021,11,0,252.4583,252.4583,74.224,-81.6808,1022.1,2.6,-999.0,yes,yes,no,300234060842950,SVP-B,ECCC,RCAF,North
2021-09-09T12:00:00Z,2021,12,0,252.5,252.5,74.2096,-81.6616,1022.2,2.6,-999.0,yes,yes,no,300234060842950,SVP-B,ECCC,RCAF,North
2021-09-09T13:00:02Z,2021,13,0,252.5417,252.5417,74.1956,-81.642,1022.2,2.7,-999.0,yes,yes,no,300234060842950,SVP-B,ECCC,RCAF,North
2021-09-09T13:59:57Z,2021,14,0,252.5833,252.5833,74.1864,-81.6178,1022.0,2.6,-999.0,yes,yes,no,300234060842950,SVP-B,ECCC,RCAF,North
2021-09-09T15:00:00Z,2021,15,0,252.625,252.625,74.178,-81.598,1022.0,2.3,-999.0,yes,yes,no,300234060842950,SVP-B,ECCC,RCAF,North
2021-09-09T16:00:02Z,2021,16,0,252.6667,252.6667,74.1712,-81.5822,1021.7,2.1,-999.0,yes,yes,no,300234060842950,SVP-B,ECCC,RCAF,North
2021-09-09T16:59:57Z,2021,17,0,252.7083,252.7083,74.1636,-81.5718,1021.6,2.2,-999.0,yes,yes,no,300234060842950,SVP-B,ECCC,RCAF,North
2021-09-09T18:00:00Z,2021,18,0,252.75,252.75,74.1582,-81.557,1021.8,2.2,-999.0,yes,yes,no,300234060842950,SVP-B,ECCC,RCAF,North
2021-09-09T19:00:02Z,2021,19,0,252.7917,252.7917,74.153,-81.5402,1022.0,2.2,-999.0,yes,yes,no,300234060842950,SVP-B,ECCC,RCAF,North
2021-09-09T19:59:57Z,2021,20,0,252.8333,252.8333,74.148,-81.511,1022.3,2.3,-999.0,yes,yes,no,300234060842950,SVP-B,ECCC,RCAF,North
2021-09-09T21:00:00Z,2021,21,0,252.875,252.875,74.1436,-81.4704,1022.6,2.3,-999.0,yes,yes,no,300234060842950,SVP-B,ECCC,RCAF,North
2021-09-09T22:00:02Z,2021,22,0,252.9167,252.9167,74.1372,-81.4218,1022.7,2.3,-999.0,yes,yes,no,300234060842950,SVP-B,ECCC,RCAF,North
2021-09-09T22:59:57Z,2021,23,0,252.9583,252.9583,74.1322,-81.3786,1022.9,2.3,-999.0,yes,yes,no,300234060842950,SVP-B,ECCC,RCAF,North
2021-09-10T00:00:00Z,2021,0,0,253.0,253.0,74.1258,-81.3352,1023.2,2.3,-999.0,yes,yes,no,300234060842950,SVP-B,ECCC,RCAF,North
2021-09-10T01:00:02Z,2021,1,0,253.0417,253.0417,74.1186,-81.3006,1023.4,2.3,-999.0,yes,yes,no,300234060842950,SVP-B,ECCC,RCAF,North
2021-09-10T01:59:57Z,2021,2,0,253.0833,253.0833,74.113,-81.2756,1023.5,2.3,-999.0,yes,yes,no,300234060842950,SVP-B,ECCC,RCAF,North
2021-09-10T03:00:00Z,2021,3,0,253.125,253.125,74.1086,-81.2646,1023.5,2.2,-999.0,yes,yes,no,300234060842950,SVP-B,ECCC,RCAF,North
2021-09-10T04:00:02Z,2021,4,0,253.1667,253.1667,74.1054,-81.2588,1023.5,2.2,-999.0,yes,yes,no,300234060842950,SVP-B,ECCC,RCAF,North
2021-09-10T04:59:57Z,2021,5,0,253.2083,253.2083,74.1026,-81.2652,1023.7,2.2,-999.0,yes,yes,no,300234060842950,SVP-B,ECCC,RCAF,North
2021-09-10T06:00:00Z,2021,6,0,253.25,253.25,74.0998,-81.2688,1023.9,2.2,-999.0,yes,yes,no,300234060842950,SVP-B,ECCC,RCAF,North
2021-09-10T07:00:02Z,2021,7,0,253.2917,253.2917,74.0976,-81.273,1024.2,2.1,-999.0,yes,yes,no,300234060842950,SVP-B,ECCC,RCAF,North
2021-09-10T07:59:57Z,2021,8,0,253.3333,253.3333,74.0964,-81.2724,1024.7,2.1,-999.0,yes,yes,no,300234060842950,SVP-B,ECCC,RCAF,North
2021-09-10T09:00:00Z,2021,9,0,253.375,253.375,74.094,-81.2612,1024.7,2.1,-999.0,yes,yes,no,300234060842950,SVP-B,ECCC,RCAF,North
2021-09-10T10:00:02Z,2021,10,0,253.4167,253.4167,74.0936,-81.237,1024.8,2.0,-999.0,yes,yes,no,300234060842950,SVP-B,ECCC,RCAF,North
2021-09-10T10:59:57Z,2021,11,0,253.4583,253.4583,74.0912,-81.2024,1025.0,2.1,-999.0,yes,yes,no,300234060842950,SVP-B,ECCC,RCAF,North
2021-09-10T12:00:00Z,2021,12,0,253.5,253.5,74.0854,-81.1582,1025.2,2.1,-999.0,yes,yes,no,300234060842950,SVP-B,ECCC,RCAF,North
2021-09-10T13:00:02Z,2021,13,0,253.5417,253.5417,74.072,-81.1432,1025.2,2.2,-999.0,yes,yes,no,300234060842950,SVP-B,ECCC,RCAF,North
2021-09-10T13:59:57Z,2021,14,0,253.5833,253.5833,74.0572,-81.1476,1025.4,2.2,-999.0,yes,yes,no,300234060842950,SVP-B,ECCC,RCAF,North
2021-09-10T15:00:00Z,2021,15,0,253.625,253.625,74.042,-81.1522,1025.4,2.1,-999.0,yes,yes,no,300234060842950,SVP-B,ECCC,RCAF,North
2021-09-10T16:00:02Z,2021,16,0,253.6667,253.6667,74.03,-81.1438,1025.2,2.2,-999.0,yes,yes,no,300234060842950,SVP-B,ECCC,RCAF,North
2021-09-10T16:59:57Z,2021,17,0,253.7083,253.7083,74.0226,-81.1268,1025.3,2.2,-999.0,yes,yes,no,300234060842950,SVP-B,ECCC,RCAF,North
2021-09-10T18:00:00Z,2021,18,0,253.75,253.75,74.0156,-81.1016,1025.5,2.2,-999.0,yes,yes,no,300234060842950,SVP-B,ECCC,RCAF,North
2021-09-10T19:00:02Z,2021,19,0,253.7917,253.7917,74.008,-81.0612,1025.7,2.3,-999.0,yes,yes,no,300234060842950,SVP-B,ECCC,RCAF,North
2021-09-10T19:59:57Z,2021,20,0,253.8333,253.8333,74.0036,-80.9958,1026.0,2.4,-999.0,yes,yes,no,300234060842950,SVP-B,ECCC,RCAF,North
2021-09-10T21:00:00Z,2021,21,0,253.875,253.875,73.9902,-80.8994,1026.2,1.3,-999.0,yes,yes,no,300234060842950,SVP-B,ECCC,RCAF,North
2021-09-10T22:00:02Z,2021,22,0,253.9167,253.9167,73.9764,-80.7734,1026.2,0.3,-999.0,yes,yes,no,300234060842950,SVP-B,ECCC,RCAF,North
2021-09-10T22:59:57Z,2021,23,0,253.9583,253.9583,73.964,-80.6438,1026.3,0.3,-999.0,yes,yes,no,300234060842950,SVP-B,ECCC,RCAF,North
2021-09-11T00:00:00Z,2021,0,0,254.0,254.0,73.9554,-80.5334,1026.4,0.3,-999.0,yes,yes,no,300234060842950,SVP-B,ECCC,RCAF,North
2021-09-11T01:00:02Z,2021,1,0,254.0417,254.0417,73.9542,-80.4406,1026.5,0.3,-999.0,yes,yes,no,300234060842950,SVP-B,ECCC,RCAF,North
2021-09-11T01:59:57Z,2021,2,0,254.0833,254.0833,73.9574,-80.35,1026.5,0.3,-999.0,yes,yes,no,300234060842950,SVP-B,ECCC,RCAF,North
2021-09-11T03:00:00Z,2021,3,0,254.125,254.125,73.9738,-80.2586,1026.7,0.3,-999.0,yes,yes,no,300234060842950,SVP-B,ECCC,RCAF,North
2021-09-11T04:00:02Z,2021,4,0,254.1667,254.1667,73.993,-80.1614,1026.8,0.3,-999.0,yes,yes,no,300234060842950,SVP-B,ECCC,RCAF,North
2021-09-11T04:59:57Z,2021,5,0,254.2083,254.2083,74.0114,-80.0732,1026.7,0.3,-999.0,yes,yes,no,300234060842950,SVP-B,ECCC,RCAF,North
2021-09-11T06:00:00Z,2021,6,0,254.25,254.25,74.0314,-79.9798,1026.6,0.2,-999.0,yes,yes,no,300234060842950,SVP-B,ECCC,RCAF,North
2021-09-11T07:00:02Z,2021,7,0,254.2917,254.2917,74.0492,-79.885,1026.5,0.1,-999.0,yes,yes,no,300234060842950,SVP-B,ECCC,RCAF,North
2021-09-11T07:59:57Z,2021,8,0,254.3333,254.3333,74.06,-79.7968,1026.6,-0.1,-999.0,yes,yes,no,300234060842950,SVP-B,ECCC,RCAF,North
2021-09-11T09:00:00Z,2021,9,0,254.375,254.375,74.0668,-79.7058,1026.4,0.1,-999.0,yes,yes,no,300234060842950,SVP-B,ECCC,RCAF,North
2021-09-11T10:00:02Z,2021,10,0,254.4167,254.4167,74.0728,-79.6054,1026.4,0.0,-999.0,yes,yes,no,300234060842950,SVP-B,ECCC,RCAF,North
2021-09-11T10:59:57Z,2021,11,0,254.4583,254.4583,74.0796,-79.4968,1026.5,-0.1,-999.0,yes,yes,no,300234060842950,SVP-B,ECCC,RCAF,North
2021-09-11T12:00:00Z,2021,12,0,254.5,254.5,74.081,-79.3862,1026.4,0.0,-999.0,yes,yes,no,300234060842950,SVP-B,ECCC,RCAF,North
2021-09-11T13:00:02Z,2021,13,0,254.5417,254.5417,74.0722,-79.2872,1026.1,0.1,-999.0,yes,yes,no,300234060842950,SVP-B,ECCC,RCAF,North
2021-09-11T13:59:57Z,2021,14,0,254.5833,254.5833,74.0614,-79.196,1025.8,0.3,-999.0,yes,yes,no,300234060842950,SVP-B,ECCC,RCAF,North
2021-09-11T15:00:00Z,2021,15,0,254.625,254.625,74.0502,-79.1084,1025.5,0.3,-999.0,yes,yes,no,300234060842950,SVP-B,ECCC,RCAF,North
2021-09-11T16:00:02Z,2021,16,0,254.6667,254.6667,74.037,-79.0174,1025.0,0.3,-999.0,yes,yes,no,300234060842950,SVP-B,ECCC,RCAF,North
2021-09-11T16:59:57Z,2021,17,0,254.7083,254.7083,74.0234,-78.921,1024.6,0.3,-999.0,yes,yes,no,300234060842950,SVP-B,ECCC,RCAF,North
2021-09-11T18:00:00Z,2021,18,0,254.75,254.75,74.0074,-78.815,1024.3,0.3,-999.0,yes,yes,no,300234060842950,SVP-B,ECCC,RCAF,North
2021-09-11T19:00:02Z,2021,19,0,254.7917,254.7917,73.9882,-78.7076,1024.0,0.3,-999.0,yes,yes,no,300234060842950,SVP-B,ECCC,RCAF,North
2021-09-11T19:59:57Z,2021,20,0,254.8333,254.8333,73.9638,-78.587,1023.5,0.4,-999.0,yes,yes,no,300234060842950,SVP-B,ECCC,RCAF,North
2021-09-11T21:00:00Z,2021,21,0,254.875,254.875,73.9318,-78.4766,1023.0,0.6,-999.0,yes,yes,no,300234060842950,SVP-B,ECCC,RCAF,North
2021-09-11T22:00:02Z,2021,22,0,254.9167,254.9167,73.8972,-78.3812,1022.5,1.4,-999.0,yes,yes,no,300234060842950,SVP-B,ECCC,RCAF,North
2021-09-11T22:59:57Z,2021,23,0,254.9583,254.9583,73.8692,-78.2944,1021.9,2.0,-999.0,yes,yes,no,300234060842950,SVP-B,ECCC,RCAF,North
2021-09-12T00:00:00Z,2021,0,0,255.0,255.0,73.8488,-78.2074,1021.3,2.3,-999.0,yes,yes,no,300234060842950,SVP-B,ECCC,RCAF,North
2021-09-12T01:00:02Z,2021,1,0,255.0417,255.0417,73.8344,-78.1218,1020.6,2.3,-999.0,yes,yes,no,300234060842950,SVP-B,ECCC,RCAF,North
2021-09-12T01:59:57Z,2021,2,0,255.0833,255.0403,73.8344,-78.1218,1019.8,2.2,-999.0,yes,yes,no,300234060842950,SVP-B,ECCC,RCAF,North
2021-09-12T03:00:00Z,2021,3,0,255.125,255.125,73.814,-77.9366,1018.8,2.3,-999.0,yes,yes,no,300234060842950,SVP-B,ECCC,RCAF,North
2021-09-12T04:00:02Z,2021,4,0,255.1667,255.1667,73.8072,-77.8434,1017.6,2.1,-999.0,yes,yes,no,300234060842950,SVP-B,ECCC,RCAF,North
2021-09-12T04:59:57Z,2021,5,0,255.2083,255.2083,73.8002,-77.7432,1016.5,2.0,-999.0,yes,yes,no,300234060842950,SVP-B,ECCC,RCAF,North
2021-09-12T06:00:00Z,2021,6,0,255.25,255.25,73.7978,-77.6302,1015.5,2.0,-999.0,yes,yes,no,300234060842950,SVP-B,ECCC,RCAF,North
2021-09-12T07:00:02Z,2021,7,0,255.2917,255.2917,73.8006,-77.5032,1014.6,1.8,-999.0,yes,yes,no,300234060842950,SVP-B,ECCC,RCAF,North
2021-09-12T07:59:57Z,2021,8,0,255.3333,255.3333,73.8066,-77.3472,1013.6,1.3,-999.0,yes,yes,no,300234060842950,SVP-B,ECCC,RCAF,North
2021-09-12T09:00:00Z,2021,9,0,255.375,255.375,73.8074,-77.1838,1012.6,1.0,-999.0,yes,yes,no,300234060842950,SVP-B,ECCC,RCAF,North
2021-09-12T10:00:02Z,2021,10,0,255.4167,255.4167,73.8002,-77.0244,1011.4,0.8,-999.0,yes,yes,no,300234060842950,SVP-B,ECCC,RCAF,North
2021-09-12T10:59:57Z,2021,11,0,255.4583,255.4583,73.784,-76.8748,1010.3,0.6,-999.0,yes,yes,no,300234060842950,SVP-B,ECCC,RCAF,North
2021-09-12T12:00:00Z,2021,12,0,255.5,255.5,73.762,-76.7306,1009.0,0.8,-999.0,yes,yes,no,300234060842950,SVP-B,ECCC,RCAF,North
2021-09-12T13:00:02Z,2021,13,0,255.5417,255.5417,73.7368,-76.606,1007.9,0.8,-999.0,yes,yes,no,300234060842950,SVP-B,ECCC,RCAF,North
2021-09-12T13:59:57Z,2021,14,0,255.5833,255.5833,73.712,-76.5052,1006.5,0.9,-999.0,yes,yes,no,300234060842950,SVP-B,ECCC,RCAF,North
2021-09-12T15:00:00Z,2021,15,0,255.625,255.625,73.6884,-76.4218,1005.2,0.8,-999.0,yes,yes,no,300234060842950,SVP-B,ECCC,RCAF,North
2021-09-12T16:00:02Z,2021,16,0,255.6667,255.6667,73.6656,-76.3586,1003.9,0.9,-999.0,yes,yes,no,300234060842950,SVP-B,ECCC,RCAF,North
2021-09-12T16:59:57Z,2021,17,0,255.7083,255.7083,73.6516,-76.2958,1002.6,0.7,-999.0,yes,yes,no,300234060842950,SVP-B,ECCC,RCAF,North
2021-09-12T18:00:00Z,2021,18,0,255.75,255.75,73.6392,-76.239,1001.9,1.0,-999.0,yes,yes,no,300234060842950,SVP-B,ECCC,RCAF,North
2021-09-12T19:00:02Z,2021,19,0,255.7917,255.7917,73.626,-76.1948,1001.0,1.4,-999.0,yes,yes,no,300234060842950,SVP-B,ECCC,RCAF,North
2021-09-12T19:59:57Z,2021,20,0,255.8333,255.8333,73.6142,-76.1594,1000.3,1.5,-999.0,yes,yes,no,300234060842950,SVP-B,ECCC,RCAF,North
2021-09-12T21:00:00Z,2021,21,0,255.875,255.875,73.6024,-76.1294,999.7,1.3,-999.0,yes,yes,no,300234060842950,SVP-B,ECCC,RCAF,North
2021-09-12T22:00:02Z,2021,22,0,255.9167,255.9167,73.594,-76.1106,998.9,1.3,-999.0,yes,yes,no,300234060842950,SVP-B,ECCC,RCAF,North
2021-09-12T22:59:57Z,2021,23,0,255.9583,255.9583,73.584,-76.0956,998.5,1.2,-999.0,yes,yes,no,300234060842950,SVP-B,ECCC,RCAF,North
2021-09-13T00:00:00Z,2021,0,0,256.0,256.0,73.5752,-76.0822,999.5,1.2,-999.0,yes,yes,no,300234060842950,SVP-B,ECCC,RCAF,North
2021-09-13T01:00:02Z,2021,1,0,256.0417,256.0417,73.5702,-76.0588,998.5,1.3,-999.0,yes,yes,no,300234060842950,SVP-B,ECCC,RCAF,North
2021-09-13T01:59:57Z,2021,2,0,256.0833,256.0833,73.5734,-76.0054,997.7,1.3,-999.0,yes,yes,no,300234060842950,SVP-B,ECCC,RCAF,North
2021-09-13T03:00:00Z,2021,3,0,256.125,256.125,73.5774,-75.9406,997.4,1.3,-999.0,yes,yes,no,300234060842950,SVP-B,ECCC,RCAF,North
2021-09-13T04:00:02Z,2021,4,0,256.1667,256.1667,73.5802,-75.8766,997.7,1.2,-999.0,yes,yes,no,300234060842950,SVP-B,ECCC,RCAF,North
2021-09-13T04:59:57Z,2021,5,0,256.2083,256.2083,73.585,-75.8094,997.8,1.1,-999.0,yes,yes,no,300234060842950,SVP-B,ECCC,RCAF,North
2021-09-13T06:00:00Z,2021,6,0,256.25,256.25,73.587,-75.7354,998.1,1.0,-999.0,yes,yes,no,300234060842950,SVP-B,ECCC,RCAF,North
2021-09-13T07:00:02Z,2021,7,0,256.2917,256.2917,73.5892,-75.658,998.5,1.0,-999.0,yes,yes,no,300234060842950,SVP-B,ECCC,RCAF,North
2021-09-13T07:59:57Z,2021,8,0,256.3333,256.3333,73.588,-75.5748,999.2,1.0,-999.0,yes,yes,no,300234060842950,SVP-B,ECCC,RCAF,North
2021-09-13T09:00:00Z,2021,9,0,256.375,256.375,73.5854,-75.4888,999.5,1.1,-999.0,yes,yes,no,300234060842950,SVP-B,ECCC,RCAF,North
2021-09-13T10:00:02Z,2021,10,0,256.4167,256.4167,73.5798,-75.4088,1000.3,1.2,-999.0,yes,yes,no,300234060842950,SVP-B,ECCC,RCAF,North
2021-09-13T10:59:57Z,2021,11,0,256.4583,256.4583,73.5744,-75.3256,1000.8,1.2,-999.0,yes,yes,no,300234060842950,SVP-B,ECCC,RCAF,North
2021-09-13T12:00:00Z,2021,12,0,256.5,256.5,73.5684,-75.2278,1001.5,1.2,-999.0,yes,yes,no,300234060842950,SVP-B,ECCC,RCAF,North
2021-09-13T13:00:02Z,2021,13,0,256.5417,256.5417,73.5608,-75.1306,1001.9,1.2,-999.0,yes,yes,no,300234060842950,SVP-B,ECCC,RCAF,North
2021-09-13T13:59:57Z,2021,14,0,256.5833,256.5833,73.5506,-75.0384,1004.5,1.2,-999.0,yes,yes,no,300234060842950,SVP-B,ECCC,RCAF,North
2021-09-13T15:00:00Z,2021,15,0,256.625,256.625,73.5386,-74.9472,1004.6,1.2,-999.0,yes,yes,no,300234060842950,SVP-B,ECCC,RCAF,North
2021-09-13T16:00:02Z,2021,16,0,256.6667,256.6667,73.5242,-74.8614,1005.1,1.2,-999.0,yes,yes,no,300234060842950,SVP-B,ECCC,RCAF,North
2021-09-13T16:59:57Z,2021,17,0,256.7083,256.7083,73.506,-74.8024,1005.8,1.2,-999.0,yes,yes,no,300234060842950,SVP-B,ECCC,RCAF,North
2021-09-13T18:00:00Z,2021,18,0,256.75,256.75,73.487,-74.7566,1005.2,1.2,-999.0,yes,yes,no,300234060842950,SVP-B,ECCC,RCAF,North
2021-09-13T19:00:02Z,2021,19,0,256.7917,256.7917,73.4676,-74.7176,1001.0,1.1,-999.0,yes,yes,no,300234060842950,SVP-B,ECCC,RCAF,North
2021-09-13T19:59:57Z,2021,20,0,256.8333,256.8333,73.448,-74.6816,999.8,1.1,-999.0,yes,yes,no,300234060842950,SVP-B,ECCC,RCAF,North
2021-09-13T21:00:00Z,2021,21,0,256.875,256.875,73.4258,-74.6524,999.7,1.1,-999.0,yes,yes,no,300234060842950,SVP-B,ECCC,RCAF,North
2021-09-13T22:00:02Z,2021,22,0,256.9167,256.9167,73.4026,-74.63,999.5,1.1,-999.0,yes,yes,no,300234060842950,SVP-B,ECCC,RCAF,North
2021-09-13T22:59:57Z,2021,23,0,256.9583,256.9583,73.3776,-74.6184,999.9,1.1,-999.0,yes,yes,no,300234060842950,SVP-B,ECCC,RCAF,North
2021-09-14T00:00:00Z,2021,0,0,257.0,257.0,73.3544,-74.6134,999.5,1.1,-999.0,yes,yes,no,300234060842950,SVP-B,ECCC,RCAF,North
2021-09-14T01:00:02Z,2021,1,0,257.0417,257.0417,73.33,-74.6162,999.9,1.1,-999.0,yes,yes,no,300234060842950,SVP-B,ECCC,RCAF,North
2021-09-14T01:59:57Z,2021,2,0,257.0833,257.0833,73.306,-74.6244,999.8,1.2,-999.0,yes,yes,no,300234060842950,SVP-B,ECCC,RCAF,North
2021-09-14T03:00:00Z,2021,3,0,257.125,257.125,73.2822,-74.6438,999.7,1.2,-999.0,yes,yes,no,300234060842950,SVP-B,ECCC,RCAF,North
2021-09-14T04:00:02Z,2021,4,0,257.1667,257.1667,73.2626,-74.6744,999.3,1.2,-999.0,yes,yes,no,300234060842950,SVP-B,ECCC,RCAF,North
2021-09-14T04:59:57Z,2021,5,0,257.2083,257.2083,73.2476,-74.7062,998.4,1.2,-999.0,yes,yes,no,300234060842950,SVP-B,ECCC,RCAF,North
2021-09-14T06:00:00Z,2021,6,0,257.25,257.25,73.2364,-74.7388,998.8,1.2,-999.0,yes,yes,no,300234060842950,SVP-B,ECCC,RCAF,North
2021-09-14T07:00:02Z,2021,7,0,257.2917,257.2917,73.2276,-74.769,998.2,1.2,-999.0,yes,yes,no,300234060842950,SVP-B,ECCC,RCAF,North
2021-09-14T07:59:57Z,2021,8,0,257.3333,257.3333,73.2192,-74.7982,996.8,1.2,-999.0,yes,yes,no,300234060842950,SVP-B,ECCC,RCAF,North
2021-09-14T09:00:00Z,2021,9,0,257.375,257.375,73.211,-74.8288,996.5,1.2,-999.0,yes,yes,no,300234060842950,SVP-B,ECCC,RCAF,North
2021-09-14T10:00:02Z,2021,10,0,257.4167,257.4167,73.202,-74.8562,997.8,1.2,-999.0,yes,yes,no,300234060842950,SVP-B,ECCC,RCAF,North
2021-09-14T10:59:57Z,2021,11,0,257.4583,257.4583,73.1902,-74.8788,998.6,1.2,-999.0,yes,yes,no,300234060842950,SVP-B,ECCC,RCAF,North
2021-09-14T12:00:00Z,2021,12,0,257.5,257.5,73.176,-74.8918,999.2,1.2,-999.0,yes,yes,no,300234060842950,SVP-B,ECCC,RCAF,North
2021-09-14T13:00:02Z,2021,13,0,257.5417,257.5417,73.1596,-74.903,999.0,1.3,-999.0,yes,yes,no,300234060842950,SVP-B,ECCC,RCAF,North
2021-09-14T13:59:57Z,2021,14,0,257.5833,257.5833,73.138,-74.9196,998.5,1.3,-999.0,yes,yes,no,300234060842950,SVP-B,ECCC,RCAF,North
2021-09-14T15:00:00Z,2021,15,0,257.625,257.625,73.1156,-74.943,999.1,1.3,-999.0,yes,yes,no,300234060842950,SVP-B,ECCC,RCAF,North
2021-09-14T16:00:02Z,2021,16,0,257.6667,257.6667,73.0902,-74.9846,999.6,1.2,-999.0,yes,yes,no,300234060842950,SVP-B,ECCC,RCAF,North
2021-09-14T16:59:57Z,2021,17,0,257.7083,257.7083,73.0676,-75.051,998.4,0.3,-999.0,yes,yes,no,300234060842950,SVP-B,ECCC,RCAF,North
2021-09-14T18:00:00Z,2021,18,0,257.75,257.75,73.0568,-75.122,998.8,0.4,-999.0,yes,yes,no,300234060842950,SVP-B,ECCC,RCAF,North
2021-09-14T19:00:02Z,2021,19,0,257.7917,257.7917,73.049,-75.1944,998.9,0.5,-999.0,yes,yes,no,300234060842950,SVP-B,ECCC,RCAF,North
2021-09-14T19:59:57Z,2021,20,0,257.8333,257.8333,73.0422,-75.2692,998.9,0.6,-999.0,yes,yes,no,300234060842950,SVP-B,ECCC,RCAF,North
2021-09-14T21:00:00Z,2021,21,0,257.875,257.875,73.0364,-75.3436,998.1,0.6,-999.0,yes,yes,no,300234060842950,SVP-B,ECCC,RCAF,North
2021-09-14T22:00:02Z,2021,22,0,257.9167,257.9167,73.0312,-75.3984,997.9,0.6,-999.0,yes,yes,no,300234060842950,SVP-B,ECCC,RCAF,North
2021-09-14T22:59:57Z,2021,23,0,257.9583,257.9583,73.0254,-75.4438,997.6,0.6,-999.0,yes,yes,no,300234060842950,SVP-B,ECCC,RCAF,North
2021-09-15T00:00:00Z,2021,0,0,258.0,258.0,73.0174,-75.4882,997.5,0.7,-999.0,yes,yes,no,300234060842950,SVP-B,ECCC,RCAF,North
2021-09-15T01:00:02Z,2021,1,0,258.0417,258.0417,73.0078,-75.525,997.5,0.7,-999.0,yes,yes,no,300234060842950,SVP-B,ECCC,RCAF,North
2021-09-15T01:59:57Z,2021,2,0,258.0833,258.0833,72.9974,-75.5578,997.4,0.7,-999.0,yes,yes,no,300234060842950,SVP-B,ECCC,RCAF,North
2021-09-15T03:00:00Z,2021,3,0,258.125,258.125,72.9876,-75.5838,996.8,0.7,-999.0,yes,yes,no,300234060842950,SVP-B,ECCC,RCAF,North
2021-09-15T04:00:02Z,2021,4,0,258.1667,258.1667,72.9788,-75.6048,995.5,0.8,-999.0,yes,yes,no,300234060842950,SVP-B,ECCC,RCAF,North
2021-09-15T04:59:57Z,2021,5,0,258.2083,258.2083,72.971,-75.6294,993.0,0.9,-999.0,yes,yes,no,300234060842950,SVP-B,ECCC,RCAF,North
2021-09-15T06:00:00Z,2021,6,0,258.25,258.25,72.9656,-75.658,993.4,0.9,-999.0,yes,yes,no,300234060842950,SVP-B,ECCC,RCAF,North
2021-09-15T07:00:02Z,2021,7,0,258.2917,258.2917,72.9628,-75.6786,992.5,0.6,-999.0,yes,yes,no,300234060842950,SVP-B,ECCC,RCAF,North
2021-09-15T07:59:57Z,2021,8,0,258.3333,258.3333,72.9572,-75.693,990.6,0.6,-999.0,yes,yes,no,300234060842950,SVP-B,ECCC,RCAF,North